This is the latest recevied weather packets stored in our database for station/object N1ORT. If no packets are shown the sender has not sent any weather packets the latest 10 day(s).
| Time | Temp. | Humidity | Pressure | Rain* | Wind** | Luminosity | Snow |
|---|---|---|---|---|---|---|---|
| 1777163691 | 7.78° C | 65% | 1016.3 hPa | 0 mm | - | 0 W/m² | - |
| 1777163386 | 7.78° C | 59% | 1016 hPa | 0 mm | - | 0 W/m² | - |
| 1777163083 | 7.78° C | 57% | 1016.2 hPa | 0 mm | - | 0 W/m² | - |
| 1777162778 | 7.78° C | 53% | 1016 hPa | 0 mm | - | 0 W/m² | - |
| 1777162473 | 7.78° C | 53% | 1016 hPa | 0 mm | - | 0 W/m² | - |
| 1777162172 | 8.33° C | 53% | 1015.9 hPa | 0 mm | - | 0 W/m² | - |
| 1777161868 | 7.78° C | 53% | 1015.7 hPa | 0 mm | - | 0 W/m² | - |
| 1777161564 | 8.33° C | 54% | 1015.9 hPa | 0 mm | - | 0 W/m² | - |
| 1777161260 | 8.33° C | 54% | 1015.6 hPa | 0 mm | - | 0 W/m² | - |
| 1777160951 | 8.33° C | 52% | 1015.6 hPa | 0 mm | - | 0 W/m² | - |
| 1777160647 | 8.89° C | 51% | 1015.7 hPa | 0 mm | - | 1 W/m² | - |
| 1777160342 | 8.89° C | 51% | 1015.7 hPa | 0 mm | - | 2 W/m² | - |
| 1777160039 | 8.89° C | 52% | 1015.5 hPa | 0 mm | - | 3 W/m² | - |
| 1777159735 | 8.89° C | 50% | 1015.5 hPa | 0 mm | - | 4 W/m² | - |
| 1777159430 | 9.44° C | 49% | 1015.5 hPa | 0 mm | - | 6 W/m² | - |
| 1777159127 | 9.44° C | 49% | 1015.4 hPa | 0 mm | - | 9 W/m² | - |
| 1777158824 | 9.44° C | 48% | 1015.4 hPa | 0 mm | - | 13 W/m² | - |
| 1777158523 | 9.44° C | 48% | 1015.3 hPa | 0 mm | - | 17 W/m² | - |
| 1777158219 | 9.44° C | 49% | 1015.2 hPa | 0 mm | - | 20 W/m² | - |
| 1777157914 | 10° C | 47% | 1015.4 hPa | 0 mm | - | 25 W/m² | - |
| 1777157611 | 10° C | 48% | 1015.4 hPa | 0 mm | - | 30 W/m² | - |
| 1777157307 | 10° C | 46% | 1015.5 hPa | 0 mm | - | 34 W/m² | - |
| 1777157006 | 10° C | 46% | 1015.3 hPa | 0 mm | - | 38 W/m² | - |
| 1777156701 | 10° C | 45% | 1015.2 hPa | 0 mm | - | 49 W/m² | - |
| 1777156399 | 10° C | 45% | 1015.3 hPa | 0 mm | - | 54 W/m² | - |
* Rain latest hour (hover to see other rain measurements)
** Current wind speed in m/s (hover to see current wind gust speed)